Weather History for Deming, NM

Change the Weather History Date:

Thursday, August 28, 2014

  Actual Average Record
Temperature  
Mean Temperature 76 °F 77 °F  
Max Temperature 92 °F 91 °F 101 °F (1948)
Min Temperature 60 °F 63 °F 53 °F (1950)
Cooling Degree Days 10    
Growing Degree Days 26 (Base 50)    
Moisture  
Dew Point 48 °F    
Average Humidity 52    
Maximum Humidity 84    
Minimum Humidity 19    
Precipitation  
Precipitation 0.00 in 0.05 in 0.43 in (1971)
Month to date precipitation 1.01 2.17  
Year to date precipitation 3.58 7.47  
Sea Level Pressure  
Sea Level Pressure 29.86 in    
Wind  
Wind Speed 6 mph (SW)    
Max Wind Speed 14 mph    
Max Gust Speed 22 mph    
Visibility 10 miles    
Events      
T = Trace of Precipitation, MM = Missing Value Source: NWS Daily Summary

Daily Weather History Graph

Daily Weather History Graph

Search for Another Location

Airport:

Trip Planner

Search our weather history database for the weather conditions in past years. The results will help you decide how hot, cold, wet, or windy it might be!

Date:

Astronomy

Aug. 28, 2014 Rise Set
Actual Time 6:43 AM MDT 7:40 PM MDT
Civil Twilight 6:18 AM MDT 8:05 PM MDT
Nautical Twilight 5:48 AM MDT 8:34 PM MDT
Astronomical Twilight 5:17 AM MDT 9:05 PM MDT
Moon 9:26 AM MDT (8/28) 9:19 PM MDT (8/28)
Length of Visible Light 13h 46m
Length of Day
12h 56m
Waxing Crescent, 9% of the Moon is Illuminated
Aug 28
Waxing Crescent
Sep 2
First Quarter
Sep 8
Full
Sep 15
Last Quarter
Sep 24
New

Hourly Weather History & Observations

Time (MDT) Temp. Dew Point Humidity Pressure Visibility Wind Dir Wind Speed Gust Speed Precip Events Conditions
12:53 AM 69.1 °F 55.0 °F 61% 29.94 in 10.0 mi East 6.9 mph - N/A   Clear
1:53 AM 66.0 °F 55.0 °F 68% 29.92 in 10.0 mi Calm Calm - N/A   Clear
2:53 AM 64.9 °F 55.0 °F 70% 29.91 in 10.0 mi Calm Calm - N/A   Clear
3:53 AM 63.0 °F 54.0 °F 72% 29.91 in 10.0 mi West 3.5 mph - N/A   Clear
4:53 AM 62.1 °F 55.0 °F 78% 29.91 in 10.0 mi Calm Calm - N/A   Clear
5:53 AM 61.0 °F 55.9 °F 83% 29.93 in 10.0 mi SW 3.5 mph - N/A   Clear
6:53 AM 60.1 °F 55.0 °F 83% 29.96 in 10.0 mi South 3.5 mph - N/A   Clear
7:53 AM 66.0 °F 55.0 °F 68% 29.96 in 10.0 mi WNW 3.5 mph - N/A   Clear
9:53 AM 79.0 °F 53.1 °F 40% 29.94 in 10.0 mi ENE 6.9 mph - N/A   Clear
10:53 AM 84.9 °F 48.9 °F 29% 29.91 in 10.0 mi NE 12.7 mph 21.9 mph N/A   Clear
11:53 AM 86.0 °F 48.0 °F 27% 29.89 in 10.0 mi Variable 4.6 mph - N/A   Clear
12:53 PM 87.1 °F 46.9 °F 25% 29.88 in 10.0 mi Variable 3.5 mph - N/A   Clear
1:53 PM 88.0 °F 45.0 °F 22% 29.86 in 10.0 mi Variable 4.6 mph - N/A   Partly Cloudy
2:53 PM 89.1 °F 43.0 °F 20% 29.83 in 10.0 mi North - - N/A   Partly Cloudy
3:53 PM 91.0 °F 44.1 °F 20% 29.80 in 10.0 mi SSW 9.2 mph 18.4 mph N/A   Partly Cloudy
4:53 PM 91.0 °F 44.1 °F 20% 29.78 in 10.0 mi SW 11.5 mph - N/A   Clear
5:53 PM 90.0 °F 43.0 °F 19% 29.78 in 10.0 mi WSW 8.1 mph - N/A   Clear
6:53 PM 89.1 °F 43.0 °F 20% 29.78 in 10.0 mi WSW 9.2 mph - N/A   Clear
7:53 PM 84.9 °F 41.0 °F 21% 29.78 in 10.0 mi SW 9.2 mph - N/A   Clear
8:53 PM 81.0 °F 43.0 °F 26% 29.80 in 10.0 mi WSW 9.2 mph - N/A   Clear
9:53 PM 79.0 °F 42.1 °F 27% 29.80 in 10.0 mi WSW 8.1 mph - N/A   Clear
10:53 PM 75.0 °F 43.0 °F 32% 29.81 in 10.0 mi WNW 8.1 mph - N/A   Clear
11:53 PM 70.0 °F 43.0 °F 38% 29.81 in 10.0 mi SSW 4.6 mph - N/A   Clear